When you browse on this site, cookies collect data to enhance your experience and personalize the content and advertising you see.
Visit our Privacy Policy to learn more. By continuing to use the site, you agree to this use of cookies and data.
  • In Schweiz
  • Länderverzeichnis
  • Für 7 Tage
  • Wassertemperatur
  • Satellitenkarten
  • Wetterkarte
  • Widgets
  • user-avatar
    Anmelden

    Stündliche Wetter Tirana

    Heute, 22 Januar, Dienstag

    Zeit Temperatur Niederschläge Wind Luftdruck Luftfeuchtigkeit
    00:00 +7°C° 0 mm 4 m/S 752 mmHg 70%
    01:00 +8°C° 0 mm 3 m/S 752 mmHg 70%
    02:00 +7°C° 0.3 mm 4 m/S 751 mmHg 71%
    03:00 +7°C° 0.3 mm 4 m/S 751 mmHg 72%
    04:00 +7°C° 0.3 mm 4 m/S 750 mmHg 73%
    05:00 +7°C° 0.7 mm 4 m/S 750 mmHg 74%
    06:00 +7°C° 0.7 mm 5 m/S 749 mmHg 75%
    07:00 +7°C° 0.7 mm 5 m/S 749 mmHg 77%
    08:00 +8°C° 0.7 mm 5 m/S 749 mmHg 74%
    09:00 +8°C° 0.7 mm 5 m/S 749 mmHg 72%
    10:00 +9°C° 0.7 mm 5 m/S 748 mmHg 69%
    11:00 +10°C° 0.6 mm 5 m/S 748 mmHg 67%
    12:00 +11°C° 0.6 mm 6 m/S 747 mmHg 65%
    13:00 +13°C° 0.6 mm 6 m/S 746 mmHg 63%
    14:00 +11°C° 0.9 mm 6 m/S 746 mmHg 67%
    15:00 +10°C° 0.9 mm 6 m/S 745 mmHg 72%
    16:00 +10°C° 0.9 mm 6 m/S 745 mmHg 76%
    17:00 +9°C° 0.7 mm 6 m/S 745 mmHg 77%
    18:00 +8°C° 0.7 mm 6 m/S 744 mmHg 79%
    19:00 +8°C° 0.7 mm 7 m/S 744 mmHg 80%
    20:00 +8°C° 0.9 mm 6 m/S 744 mmHg 81%
    21:00 +8°C° 0.9 mm 6 m/S 745 mmHg 82%
    22:00 +8°C° 0.9 mm 6 m/S 745 mmHg 84%
    23:00 +8°C° 0.5 mm 6 m/S 745 mmHg 86%

    Morgen, 23 Januar, Mittwoch

    Zeit Temperatur Niederschläge Wind Luftdruck Luftfeuchtigkeit
    00:00 +7°C° 0.5 mm 6 m/S 745 mmHg 87%
    01:00 +7°C° 0.5 mm 5 m/S 745 mmHg 89%
    02:00 +6°C° 1 mm 5 m/S 745 mmHg 89%
    03:00 +6°C° 1 mm 5 m/S 745 mmHg 90%
    04:00 +6°C° 1 mm 5 m/S 745 mmHg 90%
    05:00 +6°C° 0.8 mm 5 m/S 744 mmHg 88%
    06:00 +6°C° 0.8 mm 4 m/S 744 mmHg 86%
    07:00 +6°C° 0.8 mm 4 m/S 744 mmHg 85%
    08:00 +7°C° 0.5 mm 4 m/S 744 mmHg 79%
    09:00 +8°C° 0.5 mm 5 m/S 744 mmHg 72%
    10:00 +9°C° 0.5 mm 5 m/S 744 mmHg 66%
    11:00 +10°C° 0.6 mm 5 m/S 743 mmHg 64%
    12:00 +12°C° 0.6 mm 5 m/S 743 mmHg 62%
    13:00 +12°C° 0.6 mm 5 m/S 742 mmHg 60%
    14:00 +12°C° 0.3 mm 4 m/S 742 mmHg 64%
    15:00 +11°C° 0.3 mm 3 m/S 741 mmHg 68%
    16:00 +10°C° 0.3 mm 2 m/S 741 mmHg 71%
    17:00 +10°C° 0 mm 2 m/S 741 mmHg 73%
    18:00 +9°C° 0 mm 2 m/S 740 mmHg 75%
    19:00 +9°C° 0 mm 1 m/S 740 mmHg 77%
    20:00 +8°C° 0 mm 2 m/S 740 mmHg 77%
    21:00 +8°C° 0 mm 2 m/S 740 mmHg 77%
    22:00 +7°C° 0 mm 2 m/S 740 mmHg 77%
    23:00 +7°C° 0 mm 2 m/S 739 mmHg 77%

    übermorgen, 24 Januar, Donnerstag

    Zeit Temperatur Niederschläge Wind Luftdruck Luftfeuchtigkeit
    00:00 +7°C° 0 mm 2 m/S 739 mmHg 77%
    01:00 +6°C° 0 mm 2 m/S 738 mmHg 77%
    02:00 +6°C° 0.1 mm 2 m/S 738 mmHg 77%
    03:00 +7°C° 0.1 mm 2 m/S 737 mmHg 77%
    04:00 +7°C° 0.1 mm 3 m/S 737 mmHg 77%
    05:00 +7°C° 0.6 mm 2 m/S 737 mmHg 79%
    06:00 +7°C° 0.6 mm 1 m/S 737 mmHg 81%
    07:00 +7°C° 0.6 mm 1 m/S 737 mmHg 84%
    08:00 +7°C° 1.1 mm 1 m/S 737 mmHg 85%
    09:00 +6°C° 1.1 mm 2 m/S 737 mmHg 87%
    10:00 +6°C° 1.1 mm 2 m/S 737 mmHg 89%
    11:00 +7°C° 0.3 mm 2 m/S 737 mmHg 86%
    12:00 +8°C° 0.3 mm 2 m/S 737 mmHg 83%
    13:00 +8°C° 0.3 mm 2 m/S 737 mmHg 80%
    14:00 +8°C° 0 mm 3 m/S 737 mmHg 79%
    15:00 +9°C° 0 mm 3 m/S 738 mmHg 78%
    16:00 +9°C° 0 mm 3 m/S 738 mmHg 77%
    17:00 +8°C° 0 mm 3 m/S 738 mmHg 77%
    18:00 +6°C° 0 mm 4 m/S 738 mmHg 78%
    19:00 +6°C° 0 mm 4 m/S 738 mmHg 78%
    20:00 +5°C° 0 mm 4 m/S 738 mmHg 78%
    21:00 +5°C° 0 mm 5 m/S 738 mmHg 77%
    22:00 +5°C° 0 mm 5 m/S 738 mmHg 76%
    23:00 +5°C° 0.7 mm 4 m/S 738 mmHg 77%

    25 Januar, Freitag

    Zeit Temperatur Niederschläge Wind Luftdruck Luftfeuchtigkeit
    00:00 +6°C° 0.7 mm 4 m/S 738 mmHg 78%
    01:00 +6°C° 0.7 mm 4 m/S 738 mmHg 79%
    02:00 +6°C° 0.1 mm 4 m/S 738 mmHg 78%
    03:00 +7°C° 0.1 mm 3 m/S 738 mmHg 77%
    04:00 +7°C° 0.1 mm 3 m/S 738 mmHg 77%
    05:00 +5°C° 0 mm 4 m/S 738 mmHg 76%
    06:00 +5°C° 0 mm 5 m/S 738 mmHg 76%
    07:00 +5°C° 0 mm 5 m/S 737 mmHg 76%
    08:00 +5°C° 0.2 mm 6 m/S 737 mmHg 73%
    09:00 +6°C° 0.2 mm 7 m/S 736 mmHg 69%
    10:00 +7°C° 0.2 mm 8 m/S 736 mmHg 66%
    11:00 +8°C° 0.3 mm 7 m/S 735 mmHg 66%
    12:00 +8°C° 0.3 mm 6 m/S 735 mmHg 66%
    13:00 +9°C° 0.3 mm 6 m/S 735 mmHg 67%
    14:00 +8°C° 0.2 mm 5 m/S 735 mmHg 70%
    15:00 +8°C° 0.2 mm 4 m/S 735 mmHg 74%
    16:00 +9°C° 0.2 mm 3 m/S 735 mmHg 77%
    17:00 +7°C° 0.3 mm 4 m/S 736 mmHg 77%
    18:00 +6°C° 0.3 mm 5 m/S 736 mmHg 77%
    19:00 +5°C° 0.3 mm 6 m/S 737 mmHg 77%
    20:00 +4°C° 0 mm 6 m/S 737 mmHg 76%
    21:00 +4°C° 0 mm 6 m/S 737 mmHg 75%
    22:00 +3°C° 0 mm 5 m/S 737 mmHg 73%
    23:00 +3°C° 0 mm 5 m/S 738 mmHg 73%

    26 Januar, Samstag

    Zeit Temperatur Niederschläge Wind Luftdruck Luftfeuchtigkeit
    00:00 +4°C° 0 mm 4 m/S 738 mmHg 73%
    01:00 +4°C° 0 mm 3 m/S 738 mmHg 73%
    02:00 +3°C° 0 mm 4 m/S 738 mmHg 72%
    03:00 +3°C° 0 mm 4 m/S 738 mmHg 72%
    04:00 +2°C° 0 mm 5 m/S 739 mmHg 71%
    05:00 +3°C° 0 mm 4 m/S 739 mmHg 71%
    06:00 +3°C° 0 mm 4 m/S 739 mmHg 70%
    07:00 +3°C° 0 mm 4 m/S 740 mmHg 70%
    08:00 +5°C° 0 mm 4 m/S 740 mmHg 66%
    09:00 +6°C° 0 mm 4 m/S 741 mmHg 62%
    10:00 +7°C° 0 mm 4 m/S 741 mmHg 58%
    11:00 +8°C° 0 mm 4 m/S 741 mmHg 55%
    12:00 +10°C° 0 mm 4 m/S 741 mmHg 52%
    13:00 +11°C° 0 mm 4 m/S 741 mmHg 49%
    14:00 +11°C° 0 mm 4 m/S 741 mmHg 53%
    15:00 +10°C° 0 mm 4 m/S 741 mmHg 57%
    16:00 +9°C° 0 mm 5 m/S 742 mmHg 61%
    17:00 +8°C° 0 mm 4 m/S 742 mmHg 64%
    18:00 +6°C° 0 mm 4 m/S 743 mmHg 67%
    19:00 +5°C° 0 mm 4 m/S 743 mmHg 70%
    20:00 +5°C° 0 mm 4 m/S 743 mmHg 71%
    21:00 +4°C° 0 mm 3 m/S 744 mmHg 71%
    22:00 +4°C° 0 mm 3 m/S 744 mmHg 72%
    23:00 +3°C° 0 mm 3 m/S 744 mmHg 72%

    27 Januar, Sonntag

    Zeit Temperatur Niederschläge Wind Luftdruck Luftfeuchtigkeit
    00:00 +4°C° 0 mm 2 m/S 744 mmHg 72%
    01:00 +4°C° 0 mm 2 m/S 744 mmHg 72%
    02:00 +4°C° 0 mm 2 m/S 744 mmHg 73%
    03:00 +4°C° 0 mm 2 m/S 744 mmHg 74%
    04:00 +3°C° 0 mm 2 m/S 744 mmHg 75%
    05:00 +3°C° 0 mm 2 m/S 744 mmHg 75%
    06:00 +2°C° 0 mm 3 m/S 745 mmHg 76%
    07:00 +2°C° 0 mm 3 m/S 745 mmHg 76%
    08:00 +4°C° 0 mm 3 m/S 745 mmHg 71%
    09:00 +5°C° 0 mm 3 m/S 745 mmHg 65%
    10:00 +8°C° 0 mm 3 m/S 745 mmHg 59%
    11:00 +9°C° 0.1 mm 3 m/S 745 mmHg 60%
    12:00 +9°C° 0.1 mm 3 m/S 745 mmHg 60%
    13:00 +10°C° 0.1 mm 3 m/S 745 mmHg 61%
    14:00 +10°C° 0.3 mm 3 m/S 745 mmHg 67%
    15:00 +9°C° 0.3 mm 3 m/S 745 mmHg 72%
    16:00 +8°C° 0.3 mm 3 m/S 745 mmHg 78%
    17:00 +8°C° 0.1 mm 3 m/S 746 mmHg 79%
    18:00 +6°C° 0.1 mm 4 m/S 746 mmHg 81%
    19:00 +6°C° 0.1 mm 4 m/S 746 mmHg 83%
    20:00 +6°C° 0.2 mm 4 m/S 747 mmHg 80%
    21:00 +6°C° 0.2 mm 5 m/S 747 mmHg 77%
    22:00 +6°C° 0.2 mm 5 m/S 747 mmHg 75%
    23:00 +6°C° 0 mm 5 m/S 747 mmHg 72%
    Mehr zeigen